{"data":{"norad_id":65027,"epoch":"2026-05-25T03:57:34.324704Z","epoch_age_seconds":57822,"freshness":"FRESH","line1":"1 65027U 25161N   26145.16498061 -.00015798  00000+0 -52276-3 0  9994","line2":"2 65027  53.1603 299.3276 0001245 135.9714 224.1386 15.30177049 47037","mean_motion":15.30177049,"eccentricity":0.0001245,"inclination_deg":53.1603,"raan_deg":299.3276,"arg_perigee_deg":135.9714,"mean_anomaly_deg":224.1386,"bstar":-0.00052276,"rev_number":4703,"period_min":94.106757184802,"perigee_km":474.43034696048,"apogee_km":476.13684868934,"semimajor_km":6853.4205978249,"source":"CELESTRAK","updated_at":"2026-05-25T13:38:20.670312Z"}}